STARLINK-35950, 66622

Orbit data source: Space-Track

STARLINK-35950, 66622 is a payload satellite owned by SpaceX/Seattle (US) in LEO that was launched on Sun, 23 Nov 2025 UTC via an FALCON 9 launch vehicle from the Air Force Western Test Range (AFWTR). Payload-class satellites include a variety of spacecraft equipped with specific instruments for various scientific and technological missions. These include communications satellites like Starlink; space stations such as the ISS; scientific satellites like the Hubble; Earth observation satellites from companies like Planet Labs, Umbra, and HawkEye 360; GPS; miniature CubeSats for education and research; and military/defense satellites.

Loading next visibility...
Identifier
66622, 2025-271F
Orbit
LEO
Country
Flag of USUS
Related business
Manufacturer
SpaceX/Seattle
Mission
Operational Commercial Communications
Bus & Motor
STARLINK V2MO, Unknown motor
Mass
575 kg wet, ~530 kg dry
Launch date (UTC)
2025-11-23 (1 month ago)
Launch vehicle
FALCON 9
Launch site
Air Force Western Test Range (AFWTR)
Object type
Payload
Rocket body
Debris
Shape & HBR
Box + 2 Pan, 17.7 m
Radar Cross Section
36.964 m²

Expand to show TLE details & history
Last TLE update: 5 hours ago

TLE from 5 hours ago
0 STARLINK-35950
1 66622U 25271F   25355.50002315  .00015224  00000-0  38994-3 0  9995
2 66622  53.1596 145.5997 0001269  86.4163 163.3292 15.39611218  5658
Epoch: 2025-12-21T12:00Z
TLE epoch observation values (Epoch: 2025-12-21T12:00:02.000Z)
Latitude
-48.84022°
Longitude
113.73905°
Altitude
464.872 km
Speed
7.633 km/s
True Right ascension
01h 36m 14s
True Declination
-48° 39' 45"
Sunlit
Object was in daylight at epoch
Visualization orbit readout
Latitude
Unknown
Longitude
Unknown
Altitude
Unknown
Speed
Unknown
Apparent Right ascension
Unknown
Apparent Declination
Unknown
Sunlit
N/A
Visualization observer readout
Local Sidereal Time
15:47:44
Azimuth
Unknown
Elevation
Unknown
Doppler factor
Unknown
Orbital elements
Apogee altitude
448.382 km
Perigee altitude
446.649 km
Semi-major axis
6,825.653 km
Eccentricity
0.00013
Inclination
53.1596°
RAAN
145.5997°
Arg. of periapsis
86.4163°
True anomaly
163.33337°
Mean anomaly
163.3292°
Eccentric anomaly
163.33129°
Mean motion
3.84881 °/min
Orbital period
93.54 mins
BSTAR
0.00038994
Loading maneuver chart data...
Computing Atmospheric mass density...
Loading historical data...
Loading historical data...
Loading historical data...
Loading historical data...
Loading historical data...
Loading historical data...
Loading historical data...

Documentation

Showing up to 5 results
|